Location: Lake Arresoe
(56.0000°N, 12.5000°E)
Time: 10:38:20
(UTC+02:00)

CZ-3 Stage 3 - Pass Details

Date: 20 August 2020
Orbit: 426 x 34763 km, 31.1° (Epoch: 22 September)

Event Time Altitude Azimuth Distance (km) Brightness Sun altitude
Rises 00:02:28 0° 53° (NE) 37,521 11.3 -20.0°
Reaches altitude 10° 03:01:38 10° 62° (ENE) 37,606 11.8 -18.0°
Maximum altitude 03:32:13 10° 64° (ENE) 35,721 11.9 -15.8°
Drops below altitude 10° 03:59:07 10° 65° (ENE) 33,579 11.9 -13.4°
Sets 05:21:52 0° 66° (ENE) 23,951 12.8 -4.5°
